Location: ????????
(54.9045°N, 39.1041°E)
Time: 10:03:09
(UTC+00:00)

ISS - Pass Details

Date: 29 June 2024
Orbit: 409 x 424 km, 51.6° (Epoch: 19 July)

Event Time Altitude Azimuth Distance (km) Brightness Sun altitude
Exits shadow 23:27:24 11° 208° (SSW) 1,434 -1.8 -7.8°
Maximum altitude 23:30:00 24° 154° (SSE) 908 -2.4 -7.6°
Drops below altitude 10° 23:32:46 10° 99° (E) 1,495 -0.7 -7.5°
Sets 23:35:07 0° 85° (E) 2,365 0.6 -7.3°
